Time,TemperatureF,DewpointF,PressureIn,WindDirection,WindDirectionDegrees,WindSpeedMPH,WindSpeedGustMPH,Humidity,HourlyPrecipIn,Conditions,Clouds,dailyrainin,SoftwareType,DateUTC
2013-08-12 00:01:00,63.7,52.5,30.03,West,270,0.0,0.0,67,0.00,SCT,,0.00,WeatherDisplay:10.37,2013-08-12 04:01:00,
2013-08-12 00:02:00,63.7,52.5,30.03,West,270,0.0,0.0,67,0.00,SCT,,0.00,WeatherDisplay:10.37,2013-08-12 04:02:00,
2013-08-12 00:04:00,63.7,52.5,30.03,West,270,0.0,0.0,67,0.00,SCT,,0.00,WeatherDisplay:10.37,2013-08-12 04:04:00,
2013-08-12 00:09:00,63.5,52.3,30.03,West,270,0.0,0.0,67,0.00,SCT,,0.00,WeatherDisplay:10.37,2013-08-12 04:09:00,
2013-08-12 00:14:00,63.7,52.5,30.03,West,270,0.0,0.0,67,0.00,SCT,,0.00,WeatherDisplay:10.37,2013-08-12 04:14:00,
2013-08-12 00:19:00,63.5,52.3,30.03,West,270,0.0,0.0,67,0.00,SCT,,0.00,WeatherDisplay:10.37,2013-08-12 04:19:00,
2013-08-12 00:24:00,63.3,52.2,30.03,West,270,0.0,0.0,67,0.00,SCT,,0.00,WeatherDisplay:10.37,2013-08-12 04:24:00,
2013-08-12 00:29:00,63.1,52.0,30.03,West,270,0.0,0.0,67,0.00,SCT,,0.00,WeatherDisplay:10.37,2013-08-12 04:29:00,
2013-08-12 00:34:00,63.1,52.0,30.03,West,270,0.0,0.0,67,0.00,SCT,,0.00,WeatherDisplay:10.37,2013-08-12 04:34:00,
2013-08-12 00:39:00,63.1,52.0,30.03,West,270,0.0,0.0,67,0.00,SCT,,0.00,WeatherDisplay:10.37,2013-08-12 04:39:00,
2013-08-12 00:44:00,63.1,52.0,30.03,West,270,0.0,0.0,67,0.00,SCT,,0.00,WeatherDisplay:10.37,2013-08-12 04:44:00,
2013-08-12 00:49:00,63.0,51.8,30.03,West,270,0.0,0.0,67,0.00,SCT,,0.00,WeatherDisplay:10.37,2013-08-12 04:49:00,
2013-08-12 00:54:00,63.0,51.8,30.03,West,270,0.0,0.0,67,0.00,SCT,,0.00,WeatherDisplay:10.37,2013-08-12 04:54:00,
2013-08-12 00:59:00,63.0,51.8,30.03,West,270,0.0,0.0,67,0.00,SCT,,0.00,WeatherDisplay:10.37,2013-08-12 04:59:00,
2013-08-12 01:04:00,63.0,53.8,30.00,West,270,0.0,0.0,72,0.00,SCT,,0.00,WeatherDisplay:10.37,2013-08-12 05:04:00,
2013-08-12 01:09:00,63.1,54.0,30.00,West,270,0.0,0.0,72,0.00,SCT,,0.00,WeatherDisplay:10.37,2013-08-12 05:09:00,
2013-08-12 01:14:00,63.0,53.8,30.00,West,270,0.0,0.0,72,0.00,SCT,,0.00,WeatherDisplay:10.37,2013-08-12 05:14:00,
2013-08-12 01:19:00,63.0,53.8,30.03,West,270,0.0,0.0,72,0.00,SCT,,0.00,WeatherDisplay:10.37,2013-08-12 05:19:00,
2013-08-12 01:24:00,63.1,54.0,30.03,West,270,0.0,0.0,72,0.00,SCT,,0.00,WeatherDisplay:10.37,2013-08-12 05:24:00,
2013-08-12 01:29:00,63.0,53.8,30.03,West,270,0.0,0.0,72,0.00,SCT,,0.00,WeatherDisplay:10.37,2013-08-12 05:29:00,
2013-08-12 01:34:00,62.8,53.6,30.03,West,270,0.0,0.0,72,0.00,SCT,,0.00,WeatherDisplay:10.37,2013-08-12 05:34:00,
2013-08-12 01:39:00,62.6,53.4,30.03,West,270,0.0,0.0,72,0.00,SCT,,0.00,WeatherDisplay:10.37,2013-08-12 05:39:00,
2013-08-12 01:44:00,62.4,53.3,30.03,West,270,0.0,0.0,72,0.00,SCT,,0.00,WeatherDisplay:10.37,2013-08-12 05:44:00,
2013-08-12 01:49:00,62.4,53.3,30.03,West,270,0.0,0.0,72,0.00,SCT,,0.00,WeatherDisplay:10.37,2013-08-12 05:49:00,
2013-08-12 01:54:00,62.4,53.3,30.03,West,270,0.0,0.0,72,0.00,SCT,,0.00,WeatherDisplay:10.37,2013-08-12 05:54:00,
2013-08-12 01:59:00,62.4,53.3,30.03,West,270,0.0,0.0,72,0.00,SCT,,0.00,WeatherDisplay:10.37,2013-08-12 05:59:00,
2013-08-12 02:04:00,62.2,56.0,30.00,West,270,0.0,0.0,80,0.00,BKN,,0.00,WeatherDisplay:10.37,2013-08-12 06:04:00,
2013-08-12 02:09:00,62.2,56.0,30.00,West,270,0.0,0.0,80,0.00,BKN,,0.00,WeatherDisplay:10.37,2013-08-12 06:09:00,
2013-08-12 02:14:00,62.1,55.8,30.00,West,270,0.0,0.0,80,0.00,BKN,,0.00,WeatherDisplay:10.37,2013-08-12 06:14:00,
2013-08-12 02:19:00,62.1,55.8,30.00,West,270,0.0,0.0,80,0.00,BKN,,0.00,WeatherDisplay:10.37,2013-08-12 06:19:00,
2013-08-12 02:24:00,61.9,55.6,30.00,West,270,0.0,0.0,80,0.00,BKN,,0.00,WeatherDisplay:10.37,2013-08-12 06:24:00,
2013-08-12 02:29:00,61.9,55.6,30.00,West,270,0.0,0.0,80,0.00,BKN,,0.00,WeatherDisplay:10.37,2013-08-12 06:29:00,
2013-08-12 02:34:00,61.9,55.6,30.03,West,270,0.0,0.0,80,0.00,BKN,,0.00,WeatherDisplay:10.37,2013-08-12 06:34:00,
2013-08-12 02:39:00,61.7,55.5,30.03,West,270,0.0,0.0,80,0.00,BKN,,0.00,WeatherDisplay:10.37,2013-08-12 06:39:00,
2013-08-12 02:44:00,61.7,55.5,30.03,West,270,0.0,0.0,80,0.00,BKN,,0.00,WeatherDisplay:10.37,2013-08-12 06:44:00,
2013-08-12 02:49:00,61.7,55.5,30.03,West,270,0.0,0.0,80,0.00,BKN,,0.00,WeatherDisplay:10.37,2013-08-12 06:49:00,
2013-08-12 02:54:00,61.7,55.5,30.03,West,270,0.0,0.0,80,0.00,BKN,,0.00,WeatherDisplay:10.37,2013-08-12 06:54:00,
2013-08-12 02:59:00,61.7,55.5,30.03,West,270,0.0,0.0,80,0.00,BKN,,0.00,WeatherDisplay:10.37,2013-08-12 06:59:00,
2013-08-12 03:04:00,61.7,55.5,30.00,West,270,0.0,0.0,80,0.00,BKN,,0.00,WeatherDisplay:10.37,2013-08-12 07:04:00,
2013-08-12 03:09:00,61.5,55.3,30.00,West,270,0.0,0.0,80,0.00,BKN,,0.00,WeatherDisplay:10.37,2013-08-12 07:09:00,
2013-08-12 03:14:00,61.5,55.3,30.00,West,270,0.0,0.0,80,0.00,BKN,,0.00,WeatherDisplay:10.37,2013-08-12 07:14:00,
2013-08-12 03:19:00,61.5,55.3,30.03,West,270,0.0,0.0,80,0.00,BKN,,0.00,WeatherDisplay:10.37,2013-08-12 07:19:00,
2013-08-12 03:24:00,61.7,55.5,30.03,West,270,0.0,0.0,80,0.00,BKN,,0.00,WeatherDisplay:10.37,2013-08-12 07:24:00,
2013-08-12 03:29:00,61.7,55.5,30.03,West,270,0.0,0.0,80,0.00,BKN,,0.00,WeatherDisplay:10.37,2013-08-12 07:29:00,
2013-08-12 03:34:00,61.5,55.3,30.03,West,270,0.0,0.0,80,0.00,BKN,,0.00,WeatherDisplay:10.37,2013-08-12 07:34:00,
2013-08-12 03:39:00,61.5,55.3,30.03,West,270,0.0,0.0,80,0.00,BKN,,0.00,WeatherDisplay:10.37,2013-08-12 07:39:00,
2013-08-12 03:44:00,61.5,55.3,30.03,West,270,0.0,0.0,80,0.00,BKN,,0.00,WeatherDisplay:10.37,2013-08-12 07:44:00,
2013-08-12 03:49:00,61.5,55.3,30.03,West,270,0.0,0.0,80,0.00,BKN,,0.00,WeatherDisplay:10.37,2013-08-12 07:49:00,
2013-08-12 03:54:00,61.5,55.3,30.03,West,270,0.0,0.0,80,0.00,BKN,,0.00,WeatherDisplay:10.37,2013-08-12 07:54:00,
2013-08-12 03:59:00,61.5,55.3,30.03,West,270,0.0,0.0,80,0.00,BKN,,0.00,WeatherDisplay:10.37,2013-08-12 07:59:00,
2013-08-12 04:04:00,61.7,55.5,30.03,West,270,0.0,0.0,80,0.00,BKN,,0.00,WeatherDisplay:10.37,2013-08-12 08:04:00,
2013-08-12 04:09:00,61.7,55.5,30.03,West,270,0.0,0.0,80,0.00,BKN,,0.00,WeatherDisplay:10.37,2013-08-12 08:09:00,
2013-08-12 04:14:00,61.7,55.5,30.03,West,270,0.0,0.0,80,0.00,BKN,,0.00,WeatherDisplay:10.37,2013-08-12 08:14:00,
2013-08-12 04:19:00,61.5,55.3,30.03,West,270,0.0,0.0,80,0.00,BKN,,0.00,WeatherDisplay:10.37,2013-08-12 08:19:00,
2013-08-12 04:24:00,61.5,55.3,30.03,West,270,0.0,0.0,80,0.00,BKN,,0.00,WeatherDisplay:10.37,2013-08-12 08:24:00,
2013-08-12 04:29:00,61.5,55.3,30.03,West,270,0.0,0.0,80,0.00,BKN,,0.00,WeatherDisplay:10.37,2013-08-12 08:29:00,
2013-08-12 04:34:00,61.7,55.5,30.03,West,270,0.0,0.0,80,0.00,BKN,,0.00,WeatherDisplay:10.37,2013-08-12 08:34:00,
2013-08-12 04:39:00,61.5,55.3,30.03,West,270,0.0,0.0,80,0.00,BKN,,0.00,WeatherDisplay:10.37,2013-08-12 08:39:00,
2013-08-12 04:44:00,61.5,55.3,30.03,West,270,0.0,0.0,80,0.00,BKN,,0.00,WeatherDisplay:10.37,2013-08-12 08:44:00,
2013-08-12 04:49:00,61.3,55.1,30.03,West,270,0.0,0.0,80,0.00,BKN,,0.00,WeatherDisplay:10.37,2013-08-12 08:49:00,
2013-08-12 04:54:00,61.3,55.1,30.03,West,270,0.0,0.0,80,0.00,BKN,,0.00,WeatherDisplay:10.37,2013-08-12 08:54:00,
2013-08-12 04:59:00,61.3,55.1,30.03,West,270,0.0,0.0,80,0.00,BKN,,0.00,WeatherDisplay:10.37,2013-08-12 08:59:00,
2013-08-12 05:04:00,61.2,54.9,30.03,West,270,0.0,0.0,80,0.00,BKN,,0.00,WeatherDisplay:10.37,2013-08-12 09:04:00,
2013-08-12 05:09:00,61.0,54.8,30.03,West,270,0.0,0.0,80,0.00,BKN,,0.00,WeatherDisplay:10.37,2013-08-12 09:09:00,
2013-08-12 05:14:00,61.2,54.9,30.03,West,270,0.0,0.0,80,0.00,BKN,,0.00,WeatherDisplay:10.37,2013-08-12 09:14:00,
2013-08-12 05:19:00,61.2,56.9,30.00,West,270,0.0,0.0,86,0.00,SCT,,0.00,WeatherDisplay:10.37,2013-08-12 09:19:00,
2013-08-12 05:24:00,61.0,56.8,30.00,West,270,0.0,0.0,86,0.00,SCT,,0.00,WeatherDisplay:10.37,2013-08-12 09:24:00,
2013-08-12 05:29:00,60.8,56.6,30.00,West,270,0.0,0.0,86,0.00,SCT,,0.00,WeatherDisplay:10.37,2013-08-12 09:29:00,
2013-08-12 05:34:00,60.8,56.6,30.03,West,270,0.0,0.0,86,0.00,SCT,,0.00,WeatherDisplay:10.37,2013-08-12 09:34:00,
2013-08-12 05:39:00,60.6,56.4,30.03,West,270,0.0,0.0,86,0.00,SCT,,0.00,WeatherDisplay:10.37,2013-08-12 09:39:00,
2013-08-12 05:44:00,60.6,56.4,30.03,West,270,0.0,0.0,86,0.00,SCT,,0.00,WeatherDisplay:10.37,2013-08-12 09:44:00,
2013-08-12 05:49:00,60.6,56.4,30.03,West,270,0.0,0.0,86,0.00,SCT,,0.00,WeatherDisplay:10.37,2013-08-12 09:49:00,
2013-08-12 05:54:00,60.6,56.4,30.03,West,270,0.0,0.0,86,0.00,SCT,,0.00,WeatherDisplay:10.37,2013-08-12 09:54:00,
2013-08-12 05:59:00,60.4,56.2,30.03,West,270,0.0,0.0,86,0.00,SCT,,0.00,WeatherDisplay:10.37,2013-08-12 09:59:00,
2013-08-12 06:04:00,60.3,57.0,30.03,West,270,0.0,0.0,89,0.00,SCT,,0.00,WeatherDisplay:10.37,2013-08-12 10:04:00,
2013-08-12 06:09:00,60.3,57.0,30.03,West,270,0.0,0.0,89,0.00,SCT,,0.00,WeatherDisplay:10.37,2013-08-12 10:09:00,
2013-08-12 06:14:00,60.1,56.8,30.03,West,270,0.0,0.0,89,0.00,SCT,,0.00,WeatherDisplay:10.37,2013-08-12 10:14:00,
2013-08-12 06:19:00,60.3,57.0,30.03,West,270,0.0,0.0,89,0.00,SCT,,0.00,WeatherDisplay:10.37,2013-08-12 10:19:00,
2013-08-12 06:24:00,60.1,56.8,30.03,West,270,0.0,0.0,89,0.00,SCT,,0.00,WeatherDisplay:10.37,2013-08-12 10:24:00,
2013-08-12 06:29:00,60.1,56.8,30.03,West,270,0.0,0.0,89,0.00,SCT,,0.00,WeatherDisplay:10.37,2013-08-12 10:29:00,
2013-08-12 06:34:00,60.1,56.8,30.03,West,270,0.0,0.0,89,0.00,SCT,,0.00,WeatherDisplay:10.37,2013-08-12 10:34:00,
2013-08-12 06:39:00,60.1,56.8,30.03,West,270,0.0,0.0,89,0.00,SCT,,0.00,WeatherDisplay:10.37,2013-08-12 10:39:00,
2013-08-12 06:44:00,60.1,56.8,30.03,West,270,0.0,0.0,89,0.00,SCT,,0.00,WeatherDisplay:10.37,2013-08-12 10:44:00,
2013-08-12 06:49:00,60.1,56.8,30.03,West,270,0.0,0.0,89,0.00,SCT,,0.00,WeatherDisplay:10.37,2013-08-12 10:49:00,
2013-08-12 06:54:00,60.1,56.8,30.03,West,270,0.0,0.0,89,0.00,SCT,,0.00,WeatherDisplay:10.37,2013-08-12 10:54:00,
2013-08-12 06:59:00,60.1,56.8,30.03,West,270,0.0,0.0,89,0.00,SCT,,0.00,WeatherDisplay:10.37,2013-08-12 10:59:00,
2013-08-12 07:04:00,60.3,57.3,30.03,West,270,0.0,0.0,90,0.00,SCT,,0.00,WeatherDisplay:10.37,2013-08-12 11:04:00,
2013-08-12 07:09:00,60.3,57.3,30.03,West,270,0.0,0.0,90,0.00,SCT,,0.00,WeatherDisplay:10.37,2013-08-12 11:09:00,
2013-08-12 07:14:00,60.4,57.5,30.03,West,270,0.0,0.0,90,0.00,SCT,,0.00,WeatherDisplay:10.37,2013-08-12 11:14:00,
2013-08-12 07:19:00,60.6,57.7,30.03,West,270,0.0,0.0,90,0.00,SCT,,0.00,WeatherDisplay:10.37,2013-08-12 11:19:00,
2013-08-12 07:24:00,60.8,57.8,30.03,West,270,0.0,0.0,90,0.00,SCT,,0.00,WeatherDisplay:10.37,2013-08-12 11:24:00,
2013-08-12 07:29:00,60.8,57.8,30.03,West,270,0.0,0.0,90,0.00,SCT,,0.00,WeatherDisplay:10.37,2013-08-12 11:29:00,
2013-08-12 07:34:00,61.2,58.2,30.03,West,270,0.0,0.0,90,0.00,SCT,,0.00,WeatherDisplay:10.37,2013-08-12 11:34:00,
2013-08-12 07:39:00,61.3,58.4,30.03,West,270,0.0,0.0,90,0.00,SCT,,0.00,WeatherDisplay:10.37,2013-08-12 11:39:00,
2013-08-12 07:44:00,61.7,58.7,30.03,West,270,0.0,0.0,90,0.00,SCT,,0.00,WeatherDisplay:10.37,2013-08-12 11:44:00,
2013-08-12 07:49:00,61.9,58.9,30.03,West,270,0.0,0.0,90,0.00,SCT,,0.00,WeatherDisplay:10.37,2013-08-12 11:49:00,
2013-08-12 07:54:00,62.1,59.1,30.03,West,270,0.0,0.0,90,0.00,SCT,,0.00,WeatherDisplay:10.37,2013-08-12 11:54:00,
2013-08-12 07:59:00,62.4,59.4,30.03,West,270,0.0,0.0,90,0.00,SCT,,0.00,WeatherDisplay:10.37,2013-08-12 11:59:00,
2013-08-12 08:04:00,62.6,55.3,30.03,West,270,0.0,0.0,77,0.00,SCT,,0.00,WeatherDisplay:10.37,2013-08-12 12:04:00,
2013-08-12 08:09:00,62.8,55.5,30.03,West,270,0.0,0.0,77,0.00,SCT,,0.00,WeatherDisplay:10.37,2013-08-12 12:09:00,
2013-08-12 08:14:00,63.0,55.6,30.03,West,270,0.0,0.0,77,0.00,SCT,,0.00,WeatherDisplay:10.37,2013-08-12 12:14:00,
2013-08-12 08:19:00,63.1,55.8,30.03,West,270,0.0,0.0,77,0.00,SCT,,0.00,WeatherDisplay:10.37,2013-08-12 12:19:00,
2013-08-12 08:24:00,63.3,56.0,30.03,West,270,0.0,0.0,77,0.00,SCT,,0.00,WeatherDisplay:10.37,2013-08-12 12:24:00,
2013-08-12 08:29:00,63.7,56.3,30.03,West,270,0.0,0.0,77,0.00,SCT,,0.00,WeatherDisplay:10.37,2013-08-12 12:29:00,
2013-08-12 08:34:00,63.9,56.5,30.03,West,270,0.0,0.0,77,0.00,SCT,,0.00,WeatherDisplay:10.37,2013-08-12 12:34:00,
2013-08-12 08:39:00,64.0,56.7,30.03,West,270,0.0,0.0,77,0.00,SCT,,0.00,WeatherDisplay:10.37,2013-08-12 12:39:00,
2013-08-12 08:44:00,64.2,56.9,30.03,West,270,0.0,0.0,77,0.00,SCT,,0.00,WeatherDisplay:10.37,2013-08-12 12:44:00,
2013-08-12 08:49:00,64.8,57.4,30.03,West,270,0.0,0.0,77,0.00,SCT,,0.00,WeatherDisplay:10.37,2013-08-12 12:49:00,
2013-08-12 08:54:00,64.9,57.6,30.03,West,270,0.0,0.0,77,0.00,SCT,,0.00,WeatherDisplay:10.37,2013-08-12 12:54:00,
2013-08-12 08:59:00,65.3,57.9,30.03,West,270,0.0,0.0,77,0.00,SCT,,0.00,WeatherDisplay:10.37,2013-08-12 12:59:00,
2013-08-12 09:04:00,65.7,57.5,30.03,West,270,0.0,0.0,75,0.00,SCT,,0.00,WeatherDisplay:10.37,2013-08-12 13:04:00,
2013-08-12 09:09:00,66.0,57.9,30.03,West,270,0.0,0.0,75,0.00,SCT,,0.00,WeatherDisplay:10.37,2013-08-12 13:09:00,
2013-08-12 09:14:00,66.0,57.9,30.03,West,270,0.0,0.0,75,0.00,SCT,,0.00,WeatherDisplay:10.37,2013-08-12 13:14:00,
2013-08-12 09:19:00,66.4,58.2,30.00,West,270,0.0,0.0,75,0.00,SCT,,0.00,WeatherDisplay:10.37,2013-08-12 13:19:00,
2013-08-12 09:24:00,66.6,58.4,30.00,West,270,0.0,0.0,75,0.00,SCT,,0.00,WeatherDisplay:10.37,2013-08-12 13:24:00,
2013-08-12 09:29:00,66.7,58.6,30.00,West,270,0.0,0.0,75,0.00,SCT,,0.00,WeatherDisplay:10.37,2013-08-12 13:29:00,
2013-08-12 09:34:00,67.1,58.9,30.00,West,270,0.0,0.0,75,0.00,SCT,,0.00,WeatherDisplay:10.37,2013-08-12 13:34:00,
2013-08-12 09:39:00,67.3,59.1,30.00,West,270,0.0,0.0,75,0.00,SCT,,0.00,WeatherDisplay:10.37,2013-08-12 13:39:00,
2013-08-12 09:44:00,67.5,59.3,30.00,West,270,0.0,0.0,75,0.00,SCT,,0.00,WeatherDisplay:10.37,2013-08-12 13:44:00,
2013-08-12 09:49:00,67.6,59.4,30.00,West,270,0.0,0.0,75,0.00,SCT,,0.00,WeatherDisplay:10.37,2013-08-12 13:49:00,
2013-08-12 09:54:00,68.0,59.8,30.00,West,270,0.0,0.0,75,0.00,SCT,,0.00,WeatherDisplay:10.37,2013-08-12 13:54:00,
2013-08-12 09:59:00,68.4,60.1,30.00,West,270,0.0,0.0,75,0.00,SCT,,0.00,WeatherDisplay:10.37,2013-08-12 13:59:00,
2013-08-12 10:04:00,68.4,55.3,30.00,West,270,0.0,0.0,63,0.00,SCT,,0.00,WeatherDisplay:10.37,2013-08-12 14:04:00,
2013-08-12 10:09:00,68.7,55.6,30.00,West,270,0.0,0.0,63,0.00,SCT,,0.00,WeatherDisplay:10.37,2013-08-12 14:09:00,
2013-08-12 10:14:00,68.9,55.8,30.00,West,270,0.0,0.0,63,0.00,SCT,,0.00,WeatherDisplay:10.37,2013-08-12 14:14:00,
2013-08-12 10:19:00,68.9,55.8,30.00,West,270,0.0,0.0,63,0.00,SCT,,0.00,WeatherDisplay:10.37,2013-08-12 14:19:00,
2013-08-12 10:24:00,69.1,56.0,30.00,West,270,0.0,0.0,63,0.00,SCT,,0.00,WeatherDisplay:10.37,2013-08-12 14:24:00,
2013-08-12 10:29:00,69.6,56.5,30.00,West,270,0.0,0.0,63,0.00,SCT,,0.00,WeatherDisplay:10.37,2013-08-12 14:29:00,
2013-08-12 10:35:00,70.0,56.8,30.00,West,270,0.0,0.0,63,0.00,SCT,,0.00,WeatherDisplay:10.37,2013-08-12 14:35:00,
2013-08-12 10:40:00,70.3,57.1,30.00,West,270,0.0,0.0,63,0.00,SCT,,0.00,WeatherDisplay:10.37,2013-08-12 14:40:00,
2013-08-12 10:45:00,70.9,57.7,30.00,West,270,0.0,0.0,63,0.00,SCT,,0.00,WeatherDisplay:10.37,2013-08-12 14:45:00,
2013-08-12 10:50:00,70.9,57.7,30.00,West,270,0.0,0.0,63,0.00,SCT,,0.00,WeatherDisplay:10.37,2013-08-12 14:50:00,
2013-08-12 10:55:00,70.9,57.7,30.00,West,270,0.0,0.0,63,0.00,SCT,,0.00,WeatherDisplay:10.37,2013-08-12 14:55:00,
2013-08-12 11:00:00,71.2,58.0,30.00,West,270,0.0,0.0,63,0.00,SCT,,0.00,WeatherDisplay:10.37,2013-08-12 15:00:00,
2013-08-12 11:05:00,71.4,51.3,30.00,West,270,0.0,0.0,49,0.00,SCT,,0.00,WeatherDisplay:10.37,2013-08-12 15:05:00,
2013-08-12 11:10:00,71.4,51.3,30.00,West,270,0.0,0.0,49,0.00,SCT,,0.00,WeatherDisplay:10.37,2013-08-12 15:10:00,
2013-08-12 11:15:00,71.4,51.3,30.00,West,270,0.0,0.0,49,0.00,SCT,,0.00,WeatherDisplay:10.37,2013-08-12 15:15:00,
2013-08-12 11:20:00,71.4,51.3,29.98,West,270,0.0,0.0,49,0.00,SCT,,0.00,WeatherDisplay:10.37,2013-08-12 15:20:00,
2013-08-12 11:25:00,71.8,51.6,29.98,West,270,0.0,0.0,49,0.00,SCT,,0.00,WeatherDisplay:10.37,2013-08-12 15:25:00,
2013-08-12 11:30:00,72.0,51.8,29.98,West,270,0.0,0.0,49,0.00,SCT,,0.00,WeatherDisplay:10.37,2013-08-12 15:30:00,
2013-08-12 11:35:00,72.0,51.8,29.98,West,270,0.0,0.0,49,0.00,SCT,,0.00,WeatherDisplay:10.37,2013-08-12 15:35:00,
2013-08-12 11:40:00,72.3,52.1,29.98,West,270,0.0,0.0,49,0.00,SCT,,0.00,WeatherDisplay:10.37,2013-08-12 15:40:00,
2013-08-12 11:45:00,72.5,52.2,29.98,West,270,0.0,0.0,49,0.00,SCT,,0.00,WeatherDisplay:10.37,2013-08-12 15:45:00,
2013-08-12 11:50:00,72.7,52.4,29.98,West,270,0.0,0.0,49,0.00,SCT,,0.00,WeatherDisplay:10.37,2013-08-12 15:50:00,
2013-08-12 11:55:00,73.2,52.9,29.98,West,270,0.0,0.0,49,0.00,SCT,,0.00,WeatherDisplay:10.37,2013-08-12 15:55:00,
2013-08-12 12:00:00,73.2,52.9,29.98,West,270,0.0,0.0,49,0.00,SCT,,0.00,WeatherDisplay:10.37,2013-08-12 16:00:00,
2013-08-12 12:05:00,73.2,51.8,29.98,West,270,0.0,0.0,47,0.00,SCT,,0.00,WeatherDisplay:10.37,2013-08-12 16:05:00,
2013-08-12 12:10:00,73.6,52.1,29.98,West,270,0.0,0.0,47,0.00,SCT,,0.00,WeatherDisplay:10.37,2013-08-12 16:10:00,
2013-08-12 12:15:00,73.8,52.3,29.98,West,270,0.0,0.0,47,0.00,SCT,,0.00,WeatherDisplay:10.37,2013-08-12 16:15:00,
2013-08-12 12:20:00,73.9,52.4,29.98,West,270,0.0,0.0,47,0.00,SCT,,0.00,WeatherDisplay:10.37,2013-08-12 16:20:00,
2013-08-12 12:25:00,73.8,52.3,29.98,West,270,0.0,0.0,47,0.00,SCT,,0.00,WeatherDisplay:10.37,2013-08-12 16:25:00,
2013-08-12 12:30:00,73.8,52.3,29.98,West,270,0.0,0.0,47,0.00,SCT,,0.00,WeatherDisplay:10.37,2013-08-12 16:30:00,
2013-08-12 12:35:00,73.8,52.3,29.95,West,270,0.0,0.0,47,0.00,SCT,,0.00,WeatherDisplay:10.37,2013-08-12 16:35:00,
2013-08-12 12:40:00,73.8,52.3,29.95,West,270,0.0,0.0,47,0.00,SCT,,0.00,WeatherDisplay:10.37,2013-08-12 16:40:00,
2013-08-12 12:45:00,73.9,52.4,29.95,West,270,0.0,0.0,47,0.00,SCT,,0.00,WeatherDisplay:10.37,2013-08-12 16:45:00,
2013-08-12 12:50:00,74.1,52.6,29.95,West,270,0.0,0.0,47,0.00,SCT,,0.00,WeatherDisplay:10.37,2013-08-12 16:50:00,
2013-08-12 12:55:00,74.5,52.9,29.95,West,270,0.0,0.0,47,0.00,SCT,,0.00,WeatherDisplay:10.37,2013-08-12 16:55:00,
2013-08-12 13:00:00,74.7,51.9,29.95,WSW,250,9.2,9.2,45,0.00,SCT,,0.00,WeatherDisplay:10.37,2013-08-12 17:00:00,
2013-08-12 13:05:00,74.7,51.9,29.95,WSW,250,9.2,9.2,45,0.00,SCT,,0.00,WeatherDisplay:10.37,2013-08-12 17:05:00,
2013-08-12 13:10:00,74.5,51.7,29.95,WSW,250,9.2,9.2,45,0.00,SCT,,0.00,WeatherDisplay:10.37,2013-08-12 17:10:00,
2013-08-12 13:15:00,74.7,51.9,29.95,WSW,250,9.2,9.2,45,0.00,SCT,,0.00,WeatherDisplay:10.37,2013-08-12 17:15:00,
2013-08-12 13:20:00,75.2,52.4,29.95,WSW,250,9.2,9.2,45,0.00,SCT,,0.00,WeatherDisplay:10.37,2013-08-12 17:20:00,
2013-08-12 13:25:00,75.2,52.4,29.95,WSW,250,9.2,9.2,45,0.00,SCT,,0.00,WeatherDisplay:10.37,2013-08-12 17:25:00,
2013-08-12 13:30:00,75.0,52.2,29.95,WSW,250,9.2,9.2,45,0.00,SCT,,0.00,WeatherDisplay:10.37,2013-08-12 17:30:00,
2013-08-12 13:35:00,75.2,52.4,29.95,WSW,250,9.2,9.2,45,0.00,SCT,,0.00,WeatherDisplay:10.37,2013-08-12 17:35:00,
2013-08-12 13:40:00,75.2,52.4,29.95,WSW,250,9.2,9.2,45,0.00,SCT,,0.00,WeatherDisplay:10.37,2013-08-12 17:40:00,
2013-08-12 13:45:00,75.4,52.6,29.95,WSW,250,9.2,9.2,45,0.00,SCT,,0.00,WeatherDisplay:10.37,2013-08-12 17:45:00,
2013-08-12 13:51:00,75.2,52.4,29.95,WSW,250,9.2,9.2,45,0.00,SCT,,0.00,WeatherDisplay:10.37,2013-08-12 17:51:00,
2013-08-12 13:56:00,75.2,52.4,29.95,WSW,250,9.2,9.2,45,0.00,SCT,,0.00,WeatherDisplay:10.37,2013-08-12 17:56:00,
2013-08-12 14:01:00,75.7,53.5,29.95,West,280,9.2,9.2,46,0.00,BKN,,0.00,WeatherDisplay:10.37,2013-08-12 18:01:00,
2013-08-12 14:06:00,75.7,53.5,29.95,West,280,9.2,9.2,46,0.00,BKN,,0.00,WeatherDisplay:10.37,2013-08-12 18:06:00,
2013-08-12 14:11:00,75.6,53.3,29.95,West,280,9.2,9.2,46,0.00,BKN,,0.00,WeatherDisplay:10.37,2013-08-12 18:11:00,
2013-08-12 14:16:00,75.6,53.3,29.95,West,280,9.2,9.2,46,0.00,BKN,,0.00,WeatherDisplay:10.37,2013-08-12 18:16:00,
2013-08-12 14:21:00,75.9,53.6,29.95,West,280,9.2,9.2,46,0.00,BKN,,0.00,WeatherDisplay:10.37,2013-08-12 18:21:00,
2013-08-12 14:26:00,76.3,54.0,29.95,West,280,9.2,9.2,46,0.00,BKN,,0.00,WeatherDisplay:10.37,2013-08-12 18:26:00,
2013-08-12 14:31:00,76.3,54.0,29.95,West,280,9.2,9.2,46,0.00,BKN,,0.00,WeatherDisplay:10.37,2013-08-12 18:31:00,
2013-08-12 14:36:00,76.3,54.0,29.92,West,280,9.2,9.2,46,0.00,BKN,,0.00,WeatherDisplay:10.37,2013-08-12 18:36:00,
2013-08-12 14:41:00,76.5,54.1,29.92,West,280,9.2,9.2,46,0.00,BKN,,0.00,WeatherDisplay:10.37,2013-08-12 18:41:00,
2013-08-12 14:46:00,76.8,54.5,29.92,West,280,9.2,9.2,46,0.00,BKN,,0.00,WeatherDisplay:10.37,2013-08-12 18:46:00,
2013-08-12 14:51:00,77.0,54.6,29.92,West,280,9.2,9.2,46,0.00,BKN,,0.00,WeatherDisplay:10.37,2013-08-12 18:51:00,
2013-08-12 14:56:00,77.0,54.6,29.92,West,280,9.2,9.2,46,0.00,BKN,,0.00,WeatherDisplay:10.37,2013-08-12 18:56:00,
2013-08-12 15:01:00,76.8,53.9,29.92,South,190,11.5,11.5,45,0.00,BKN,,0.00,WeatherDisplay:10.37,2013-08-12 19:01:00,
2013-08-12 15:07:00,77.0,54.0,29.92,South,190,11.5,11.5,45,0.00,BKN,,0.00,WeatherDisplay:10.37,2013-08-12 19:07:00,
2013-08-12 15:12:00,76.8,53.9,29.92,South,190,11.5,11.5,45,0.00,BKN,,0.00,WeatherDisplay:10.37,2013-08-12 19:12:00,
2013-08-12 15:17:00,77.0,54.0,29.92,South,190,11.5,11.5,45,0.00,BKN,,0.00,WeatherDisplay:10.37,2013-08-12 19:17:00,
2013-08-12 15:22:00,77.0,54.0,29.92,South,190,11.5,11.5,45,0.00,BKN,,0.00,WeatherDisplay:10.37,2013-08-12 19:22:00,
2013-08-12 15:27:00,77.0,54.0,29.92,South,190,11.5,11.5,45,0.00,BKN,,0.00,WeatherDisplay:10.37,2013-08-12 19:27:00,
2013-08-12 15:32:00,77.0,54.0,29.92,South,190,11.5,11.5,45,0.00,BKN,,0.00,WeatherDisplay:10.37,2013-08-12 19:32:00,
2013-08-12 15:37:00,77.0,54.0,29.92,South,190,11.5,11.5,45,0.00,BKN,,0.00,WeatherDisplay:10.37,2013-08-12 19:37:00,
2013-08-12 15:42:00,76.8,53.9,29.92,South,190,11.5,11.5,45,0.00,BKN,,0.00,WeatherDisplay:10.37,2013-08-12 19:42:00,
2013-08-12 15:47:00,76.6,53.7,29.92,South,190,11.5,11.5,45,0.00,BKN,,0.00,WeatherDisplay:10.37,2013-08-12 19:47:00,
2013-08-12 15:52:00,76.6,53.7,29.92,South,190,11.5,11.5,45,0.00,BKN,,0.00,WeatherDisplay:10.37,2013-08-12 19:52:00,
2013-08-12 15:57:00,76.6,53.7,29.92,South,190,11.5,11.5,45,0.00,BKN,,0.00,WeatherDisplay:10.37,2013-08-12 19:57:00,
2013-08-12 16:02:00,76.6,54.3,29.92,South,190,9.2,11.5,46,0.00,BKN,,0.00,WeatherDisplay:10.37,2013-08-12 20:02:00,
2013-08-12 16:07:00,76.6,54.3,29.92,South,190,9.2,9.2,46,0.00,BKN,,0.00,WeatherDisplay:10.37,2013-08-12 20:07:00,
2013-08-12 16:12:00,76.6,54.3,29.92,South,190,9.2,9.2,46,0.00,BKN,,0.00,WeatherDisplay:10.37,2013-08-12 20:12:00,
2013-08-12 16:17:00,76.6,54.3,29.92,South,190,9.2,9.2,46,0.00,BKN,,0.00,WeatherDisplay:10.37,2013-08-12 20:17:00,
2013-08-12 16:22:00,76.8,54.5,29.92,South,190,9.2,9.2,46,0.00,BKN,,0.00,WeatherDisplay:10.37,2013-08-12 20:22:00,
2013-08-12 16:27:00,76.6,54.3,29.92,South,190,9.2,9.2,46,0.00,BKN,,0.00,WeatherDisplay:10.37,2013-08-12 20:27:00,
2013-08-12 16:32:00,76.6,54.3,29.92,South,190,9.2,9.2,46,0.00,BKN,,0.00,WeatherDisplay:10.37,2013-08-12 20:32:00,
2013-08-12 16:37:00,76.6,54.3,29.92,South,190,9.2,9.2,46,0.00,BKN,,0.00,WeatherDisplay:10.37,2013-08-12 20:37:00,
2013-08-12 16:42:00,76.6,54.3,29.92,South,190,9.2,9.2,46,0.00,BKN,,0.00,WeatherDisplay:10.37,2013-08-12 20:42:00,
2013-08-12 16:47:00,76.6,54.3,29.92,South,190,9.2,9.2,46,0.00,BKN,,0.00,WeatherDisplay:10.37,2013-08-12 20:47:00,
2013-08-12 16:52:00,76.5,54.1,29.92,South,190,9.2,9.2,46,0.00,BKN,,0.00,WeatherDisplay:10.37,2013-08-12 20:52:00,
2013-08-12 16:57:00,76.5,54.1,29.92,South,190,9.2,9.2,46,0.00,BKN,,0.00,WeatherDisplay:10.37,2013-08-12 20:57:00,
2013-08-12 17:02:00,76.6,54.3,29.92,South,170,5.8,9.2,46,0.00,SCT,,0.00,WeatherDisplay:10.37,2013-08-12 21:02:00,
2013-08-12 17:07:00,76.5,54.1,29.92,South,170,5.8,5.8,46,0.00,SCT,,0.00,WeatherDisplay:10.37,2013-08-12 21:07:00,
2013-08-12 17:12:00,76.5,54.1,29.92,South,170,5.8,5.8,46,0.00,SCT,,0.00,WeatherDisplay:10.37,2013-08-12 21:12:00,
2013-08-12 17:17:00,76.3,54.0,29.92,South,170,5.8,5.8,46,0.00,SCT,,0.00,WeatherDisplay:10.37,2013-08-12 21:17:00,
2013-08-12 17:22:00,76.3,54.0,29.89,South,170,5.8,5.8,46,0.00,SCT,,0.00,WeatherDisplay:10.37,2013-08-12 21:22:00,
2013-08-12 17:27:00,76.3,54.0,29.89,South,170,5.8,5.8,46,0.00,SCT,,0.00,WeatherDisplay:10.37,2013-08-12 21:27:00,
2013-08-12 17:32:00,76.3,54.0,29.89,South,170,5.8,5.8,46,0.00,SCT,,0.00,WeatherDisplay:10.37,2013-08-12 21:32:00,
2013-08-12 17:37:00,76.3,54.0,29.89,South,170,5.8,5.8,46,0.00,SCT,,0.00,WeatherDisplay:10.37,2013-08-12 21:37:00,
2013-08-12 17:42:00,76.3,54.0,29.89,South,170,5.8,5.8,46,0.00,SCT,,0.00,WeatherDisplay:10.37,2013-08-12 21:42:00,
2013-08-12 17:47:00,76.3,54.0,29.89,South,170,5.8,5.8,46,0.00,SCT,,0.00,WeatherDisplay:10.37,2013-08-12 21:47:00,
2013-08-12 17:52:00,76.5,54.1,29.89,South,170,5.8,5.8,46,0.00,SCT,,0.00,WeatherDisplay:10.37,2013-08-12 21:52:00,
2013-08-12 17:57:00,76.5,54.1,29.89,South,170,5.8,5.8,46,0.00,SCT,,0.00,WeatherDisplay:10.37,2013-08-12 21:57:00,
2013-08-12 18:02:00,76.6,54.3,29.89,South,170,5.8,5.8,46,0.00,SCT,,0.00,WeatherDisplay:10.37,2013-08-12 22:02:00,
2013-08-12 18:07:00,76.5,54.1,29.89,South,170,5.8,5.8,46,0.00,SCT,,0.00,WeatherDisplay:10.37,2013-08-12 22:07:00,
2013-08-12 18:12:00,76.5,54.1,29.89,South,170,5.8,5.8,46,0.00,SCT,,0.00,WeatherDisplay:10.37,2013-08-12 22:12:00,
2013-08-12 18:17:00,76.3,56.3,29.89,South,190,5.8,5.8,50,0.00,BKN,,0.00,WeatherDisplay:10.37,2013-08-12 22:17:00,
2013-08-12 18:22:00,76.1,56.1,29.89,South,190,5.8,5.8,50,0.00,BKN,,0.00,WeatherDisplay:10.37,2013-08-12 22:22:00,
2013-08-12 18:27:00,75.9,55.9,29.89,South,190,5.8,5.8,50,0.00,BKN,,0.00,WeatherDisplay:10.37,2013-08-12 22:27:00,
2013-08-12 18:32:00,75.7,55.8,29.89,South,190,5.8,5.8,50,0.00,BKN,,0.00,WeatherDisplay:10.37,2013-08-12 22:32:00,
2013-08-12 18:37:00,75.4,55.4,29.89,South,190,5.8,5.8,50,0.00,BKN,,0.00,WeatherDisplay:10.37,2013-08-12 22:37:00,
2013-08-12 18:42:00,75.0,55.1,29.89,South,190,5.8,5.8,50,0.00,BKN,,0.00,WeatherDisplay:10.37,2013-08-12 22:42:00,
2013-08-12 18:47:00,74.7,54.8,29.89,South,190,5.8,5.8,50,0.00,BKN,,0.00,WeatherDisplay:10.37,2013-08-12 22:47:00,
2013-08-12 18:52:00,74.5,54.6,29.89,South,190,5.8,5.8,50,0.00,BKN,,0.00,WeatherDisplay:10.37,2013-08-12 22:52:00,
2013-08-12 18:57:00,74.1,54.3,29.89,South,190,5.8,5.8,50,0.00,BKN,,0.00,WeatherDisplay:10.37,2013-08-12 22:57:00,
2013-08-12 19:02:00,73.9,54.1,29.89,South,190,5.8,5.8,50,0.00,BKN,,0.00,WeatherDisplay:10.37,2013-08-12 23:02:00,
2013-08-12 19:07:00,73.8,54.0,29.89,South,190,5.8,5.8,50,0.00,BKN,,0.00,WeatherDisplay:10.37,2013-08-12 23:07:00,
2013-08-12 19:12:00,73.6,53.8,29.89,South,190,5.8,5.8,50,0.00,BKN,,0.00,WeatherDisplay:10.37,2013-08-12 23:12:00,
2013-08-12 19:17:00,73.4,55.2,29.89,South,190,5.8,5.8,53,0.00,BKN,,0.00,WeatherDisplay:10.37,2013-08-12 23:17:00,
2013-08-12 19:22:00,73.2,55.1,29.89,South,190,5.8,5.8,53,0.00,BKN,,0.00,WeatherDisplay:10.37,2013-08-12 23:22:00,
2013-08-12 19:27:00,73.0,54.9,29.89,South,190,5.8,5.8,53,0.00,BKN,,0.00,WeatherDisplay:10.37,2013-08-12 23:27:00,
2013-08-12 19:32:00,73.0,54.9,29.89,South,190,5.8,5.8,53,0.00,BKN,,0.00,WeatherDisplay:10.37,2013-08-12 23:32:00,
2013-08-12 19:37:00,72.9,54.7,29.89,South,190,5.8,5.8,53,0.00,BKN,,0.00,WeatherDisplay:10.37,2013-08-12 23:37:00,
2013-08-12 19:42:00,72.7,54.6,29.89,South,190,5.8,5.8,53,0.00,BKN,,0.00,WeatherDisplay:10.37,2013-08-12 23:42:00,
2013-08-12 19:47:00,72.7,54.6,29.89,South,190,5.8,5.8,53,0.00,BKN,,0.00,WeatherDisplay:10.37,2013-08-12 23:47:00,
2013-08-12 19:52:00,72.5,54.4,29.89,South,190,5.8,5.8,53,0.00,BKN,,0.00,WeatherDisplay:10.37,2013-08-12 23:52:00,
2013-08-12 19:57:00,72.5,54.4,29.89,South,190,5.8,5.8,53,0.00,BKN,,0.00,WeatherDisplay:10.37,2013-08-12 23:57:00,
2013-08-12 20:02:00,72.3,54.2,29.89,South,190,5.8,5.8,53,0.00,BKN,,0.00,WeatherDisplay:10.37,2013-08-13 00:02:00,
2013-08-12 20:07:00,72.0,53.9,29.89,South,190,5.8,5.8,53,0.00,BKN,,0.00,WeatherDisplay:10.37,2013-08-13 00:07:00,
2013-08-12 20:12:00,71.8,53.7,29.89,South,190,5.8,5.8,53,0.00,BKN,,0.00,WeatherDisplay:10.37,2013-08-13 00:12:00,
2013-08-12 20:17:00,71.6,54.6,29.89,South,180,5.8,5.8,55,0.00,BKN,,0.00,WeatherDisplay:10.37,2013-08-13 00:17:00,
2013-08-12 20:22:00,71.6,54.6,29.89,South,180,5.8,5.8,55,0.00,BKN,,0.00,WeatherDisplay:10.37,2013-08-13 00:22:00,
2013-08-12 20:27:00,71.4,54.4,29.89,South,180,5.8,5.8,55,0.00,BKN,,0.00,WeatherDisplay:10.37,2013-08-13 00:27:00,
2013-08-12 20:32:00,71.4,54.4,29.89,South,180,5.8,5.8,55,0.00,BKN,,0.00,WeatherDisplay:10.37,2013-08-13 00:32:00,
2013-08-12 20:37:00,71.2,54.2,29.89,South,180,5.8,5.8,55,0.00,BKN,,0.00,WeatherDisplay:10.37,2013-08-13 00:37:00,
2013-08-12 20:42:00,71.1,54.1,29.89,South,180,5.8,5.8,55,0.00,BKN,,0.00,WeatherDisplay:10.37,2013-08-13 00:42:00,
2013-08-12 20:47:00,70.9,53.9,29.89,South,180,5.8,5.8,55,0.00,BKN,,0.00,WeatherDisplay:10.37,2013-08-13 00:47:00,
2013-08-12 20:52:00,70.9,53.9,29.89,South,180,5.8,5.8,55,0.00,BKN,,0.00,WeatherDisplay:10.37,2013-08-13 00:52:00,
2013-08-12 20:57:00,70.7,53.7,29.89,South,180,5.8,5.8,55,0.00,BKN,,0.00,WeatherDisplay:10.37,2013-08-13 00:57:00,
2013-08-12 21:02:00,70.5,53.6,29.89,South,180,5.8,5.8,55,0.00,BKN,,0.00,WeatherDisplay:10.37,2013-08-13 01:02:00,
2013-08-12 21:07:00,70.5,53.6,29.89,South,180,5.8,5.8,55,0.00,BKN,,0.00,WeatherDisplay:10.37,2013-08-13 01:07:00,
2013-08-12 21:12:00,70.5,53.6,29.89,South,180,5.8,5.8,55,0.00,BKN,,0.00,WeatherDisplay:10.37,2013-08-13 01:12:00,
2013-08-12 21:17:00,70.5,56.4,29.89,South,180,0.0,0.0,61,0.00,BKN,,0.00,WeatherDisplay:10.37,2013-08-13 01:17:00,
2013-08-12 21:22:00,70.5,56.4,29.89,South,180,0.0,0.0,61,0.00,BKN,,0.00,WeatherDisplay:10.37,2013-08-13 01:22:00,
2013-08-12 21:27:00,70.2,56.1,29.89,South,180,0.0,0.0,61,0.00,BKN,,0.00,WeatherDisplay:10.37,2013-08-13 01:27:00,
2013-08-12 21:32:00,70.2,56.1,29.89,South,180,0.0,0.0,61,0.00,BKN,,0.00,WeatherDisplay:10.37,2013-08-13 01:32:00,
2013-08-12 21:37:00,70.2,56.1,29.89,South,180,0.0,0.0,61,0.00,BKN,,0.00,WeatherDisplay:10.37,2013-08-13 01:37:00,
2013-08-12 21:42:00,70.2,56.1,29.89,South,180,0.0,0.0,61,0.00,BKN,,0.00,WeatherDisplay:10.37,2013-08-13 01:42:00,
2013-08-12 21:47:00,70.0,55.9,29.89,South,180,0.0,0.0,61,0.00,BKN,,0.00,WeatherDisplay:10.37,2013-08-13 01:47:00,
2013-08-12 21:52:00,70.0,55.9,29.89,South,180,0.0,0.0,61,0.00,BKN,,0.00,WeatherDisplay:10.37,2013-08-13 01:52:00,
2013-08-12 21:57:00,70.0,55.9,29.89,South,180,0.0,0.0,61,0.00,BKN,,0.00,WeatherDisplay:10.37,2013-08-13 01:57:00,
2013-08-12 22:02:00,70.0,57.7,29.89,South,180,0.0,0.0,65,0.00,BKN,,0.00,WeatherDisplay:10.37,2013-08-13 02:02:00,
2013-08-12 22:07:00,69.8,57.5,29.89,South,180,0.0,0.0,65,0.00,BKN,,0.00,WeatherDisplay:10.37,2013-08-13 02:07:00,
2013-08-12 22:12:00,70.0,57.7,29.89,South,180,0.0,0.0,65,0.00,BKN,,0.00,WeatherDisplay:10.37,2013-08-13 02:12:00,
2013-08-12 22:17:00,70.0,57.7,29.89,South,180,0.0,0.0,65,0.00,BKN,,0.00,WeatherDisplay:10.37,2013-08-13 02:17:00,
2013-08-12 22:22:00,69.8,57.5,29.89,South,180,0.0,0.0,65,0.00,BKN,,0.00,WeatherDisplay:10.37,2013-08-13 02:22:00,
2013-08-12 22:27:00,69.8,57.5,29.89,South,180,0.0,0.0,65,0.00,BKN,,0.00,WeatherDisplay:10.37,2013-08-13 02:27:00,
2013-08-12 22:32:00,69.8,57.5,29.89,South,180,0.0,0.0,65,0.00,BKN,,0.00,WeatherDisplay:10.37,2013-08-13 02:32:00,
2013-08-12 22:37:00,69.8,57.5,29.89,South,180,0.0,0.0,65,0.00,BKN,,0.00,WeatherDisplay:10.37,2013-08-13 02:37:00,
2013-08-12 22:42:00,69.8,57.5,29.89,South,180,0.0,0.0,65,0.00,BKN,,0.00,WeatherDisplay:10.37,2013-08-13 02:42:00,
2013-08-12 22:47:00,69.6,57.3,29.89,South,180,0.0,0.0,65,0.00,BKN,,0.00,WeatherDisplay:10.37,2013-08-13 02:47:00,
2013-08-12 22:52:00,69.6,57.3,29.89,South,180,0.0,0.0,65,0.00,BKN,,0.00,WeatherDisplay:10.37,2013-08-13 02:52:00,
2013-08-12 22:57:00,69.6,57.3,29.89,South,180,0.0,0.0,65,0.00,BKN,,0.00,WeatherDisplay:10.37,2013-08-13 02:57:00,
2013-08-12 23:02:00,69.6,57.3,29.89,South,180,0.0,0.0,65,0.00,BKN,,0.00,WeatherDisplay:10.37,2013-08-13 03:02:00,
2013-08-12 23:07:00,69.6,57.3,29.86,South,180,0.0,0.0,65,0.00,BKN,,0.00,WeatherDisplay:10.37,2013-08-13 03:07:00,
2013-08-12 23:12:00,69.6,57.3,29.86,South,180,0.0,0.0,65,0.00,BKN,,0.00,WeatherDisplay:10.37,2013-08-13 03:12:00,
2013-08-12 23:17:00,69.6,58.6,29.86,South,180,0.0,0.0,68,0.00,OVC,,0.00,WeatherDisplay:10.37,2013-08-13 03:17:00,
2013-08-12 23:22:00,69.6,58.6,29.89,South,180,0.0,0.0,68,0.00,OVC,,0.00,WeatherDisplay:10.37,2013-08-13 03:22:00,
2013-08-12 23:27:00,69.6,58.6,29.89,South,180,0.0,0.0,68,0.00,OVC,,0.00,WeatherDisplay:10.37,2013-08-13 03:27:00,
2013-08-12 23:32:00,69.6,58.6,29.89,South,180,0.0,0.0,68,0.00,OVC,,0.00,WeatherDisplay:10.37,2013-08-13 03:32:00,
2013-08-12 23:37:00,69.6,58.6,29.92,South,180,0.0,0.0,68,0.00,OVC,,0.00,WeatherDisplay:10.37,2013-08-13 03:37:00,
2013-08-12 23:42:00,69.6,58.6,29.92,South,180,0.0,0.0,68,0.00,OVC,,0.00,WeatherDisplay:10.37,2013-08-13 03:42:00,
2013-08-12 23:47:00,69.6,58.6,29.92,South,180,0.0,0.0,68,0.00,OVC,,0.00,WeatherDisplay:10.37,2013-08-13 03:47:00,
2013-08-12 23:53:00,69.6,58.6,29.89,South,180,0.0,0.0,68,0.00,OVC,,0.00,WeatherDisplay:10.37,2013-08-13 03:53:00,
2013-08-12 23:58:00,69.4,58.4,29.89,South,180,0.0,0.0,68,0.00,OVC,,0.00,WeatherDisplay:10.37,2013-08-13 03:58:00,